Location: El Águila
(10.4167°N, 66.7167°W)
Time: 16:23:36
(UTC+00:00)

CZ-3C R/B - Pass Details

Date: 31 March 2023
Orbit: 253 x 32126 km, 20.0° (Epoch: 28 May)

Event Time Altitude Azimuth Distance (km) Brightness Sun altitude
Rises 02:34:48 0° 258° (WSW) 8,292 7.6 -57.6°
Reaches altitude 10° 02:38:22 10° 259° (WSW) 8,350 7.5 -58.4°
Maximum altitude 04:20:19 74° 303° (WNW) 23,839 9.0 -75.3°
Drops below altitude 10° 11:24:20 10° 122° (ESE) 4,774 7.2 13.8°
Sets 11:26:16 0° 120° (ESE) 5,132 7.3 14.3°
